Location: LDNL
(36.4545°S, 141.6685°E)
Time: 13:21:05
(UTC+11:00)

Courier 1B Rocket - Pass Details

Date: 06 February 2023
Orbit: 920 x 1202 km, 28.2° (Epoch: 25 March)

Event Time Altitude Azimuth Distance (km) Brightness Sun altitude
Rises 03:11:40 0° 331° (NNW) 3,893 - -34.0°
Reaches altitude 10° 03:15:25 10° 349° (N) 2,993 - -33.7°
Maximum altitude 03:20:02 18° 28° (NNE) 2,524 - -33.3°
Exits shadow 03:23:22 13° 57° (ENE) 2,832 7.3 -33.0°
Drops below altitude 10° 03:24:48 10° 67° (ENE) 3,103 7.6 -32.8°
Sets 03:28:46 0° 84° (E) 4,095 8.5 -32.5°
